#timestamp,LO_Frequency,Hit,StdDev 
1508828415.4,286046996.4,N
1508828435.2,286046992.8,Y
1508828455.1,286046996.4,P
1508828456.0,286046996.4,P
1508828475.8,286046994.5,P
1508828495.7,286046996.1,Y
1508828515.5,286047002.0,P
1508828535.3,286047001.5,N
1508828555.2,286046998.3,N
1508828575.9,286046999.2,N
1508828595.7,286047001.1,N
1508828615.6,286047001.2,N
1508828635.4,286047000.1,N
1508828655.2,286047009.2,Y
1508828675.1,286047008.2,P
1508828676.0,286047008.2,N
1508828695.8,286047006.7,N
1508828715.6,286047009.0,N
1508828735.5,286047008.6,N
1508828755.3,286047006.8,N
1508828775.1,286047007.0,N
1508828795.9,286047007.1,N
1508828815.7,286047005.5,N
1508828835.5,286047005.8,N
1508828855.4,286047007.5,Y
1508828875.2,286046996.8,P
1508828895.1,286046998.3,N
1508828896.0,286046998.3,N
1508828915.8,286046998.8,N
1508828935.6,286046999.1,N
1508828955.5,286046998.4,N
1508828975.3,286046996.6,N
1508828995.1,286046996.9,N
1508829015.9,286046998.4,N
1508829035.7,286046999.5,N
1508829055.5,286046998.4,N
1508829075.4,286046998.7,N
1508829095.2,286046998.8,N
1508829115.0,286047000.8,N
1508829115.9,286047000.8,N
1508829135.8,286047000.7,N
1508829155.6,286047001.1,N
1508829175.4,286046998.9,N
1508829195.3,286047002.4,N
1508829215.1,286046997.0,N
1508829235.8,286046997.8,N
1508829255.7,286047000.5,N
1508829275.5,286047000.9,N
1508829295.3,286046997.0,N
1508829315.2,286046995.7,N
1508829335.0,286046997.9,N
1508829335.9,286046997.9,N
1508829355.7,286046995.2,N
1508829375.6,286046994.2,N
1508829395.4,286046994.5,N
1508829415.2,286046995.7,N
1508829435.1,286046996.8,N
1508829436.0,286046996.8,N
1508829455.8,286047000.3,N
1508829475.7,286046996.8,N
1508829495.5,286046999.6,N
1508829515.3,286046996.7,N
1508829535.2,286046997.9,N
1508829555.9,286046995.1,N
1508829575.7,286046996.3,N
1508829595.6,286046996.3,N
1508829615.4,286046996.2,N
1508829635.2,286046991.7,Y
1508829655.1,286046995.6,P
1508829656.0,286046995.6,P
1508829675.8,286046994.7,P
1508829695.7,286046991.2,Y
1508829715.5,286046999.4,P
1508829735.3,286047000.2,N
1508829755.2,286046999.3,N
1508829775.9,286046998.4,N
1508829795.7,286047002.5,N
1508829815.6,286047000.4,N
1508829835.4,286047005.9,Y
1508829855.2,286047005.9,P
1508829875.1,286047001.7,N
1508829876.0,286047001.7,N
1508829895.8,286047003.4,N
1508829915.6,286047005.1,N
1508829935.5,286047004.5,N
1508829955.3,286047005.9,N
1508829975.1,286047004.5,N
1508829995.9,286047004.7,N
1508830015.7,286047005.3,N
1508830035.6,286047007.1,Y
1508830055.4,286047005.9,P
1508830075.2,286047004.3,P
1508830095.1,286047005.9,P
1508830096.0,286047005.9,Y
1508830115.8,286047002.6,P
1508830135.6,286046999.4,N
1508830155.5,286046997.1,N
1508830175.3,286046997.7,N
1508830195.2,286046996.8,N
1508830215.9,286046995.4,N
1508830235.7,286046999.1,N
1508830255.6,286047002.0,N
1508830275.4,286047004.3,N
1508830295.2,286047000.6,N
1508830315.1,286047000.8,N
1508830316.0,286047000.8,N
1508830335.8,286046997.0,N
1508830355.6,286046995.2,N
1508830375.5,286046997.0,N
1508830395.3,286046996.8,N
1508830415.1,286046999.2,N
1508830435.9,286046995.5,N
1508830455.7,286046993.4,N
1508830475.5,286046996.3,N
1508830495.4,286046997.6,N
1508830515.2,286046997.7,N
1508830535.0,286046998.0,N
1508830535.9,286046998.0,N
1508830555.8,286046996.9,N
1508830575.6,286046995.1,N
1508830595.4,286046994.5,N
1508830615.3,286046994.2,N
1508830635.1,286046997.5,N
1508830655.8,286046996.3,N
1508830675.7,286046997.7,N
1508830695.5,286046994.5,N
1508830715.3,286046998.0,N
1508830735.2,286046991.5,Y
1508830755.0,286046992.7,P
1508830755.9,286046992.7,P
1508830775.8,286046988.7,P
1508830795.6,286046989.0,Y
1508830815.4,286046998.7,P
1508830835.3,286046997.5,N
1508830855.1,286046999.6,N
1508830856.0,286046999.6,N
1508830875.8,286046999.9,N
1508830895.7,286046998.3,N
1508830915.5,286046999.9,N
1508830935.3,286046997.7,N
1508830955.2,286046995.4,N
1508830975.0,286046997.4,N
1508830975.9,286046997.4,N
1508830995.7,286046997.2,N
1508831015.6,286047001.1,N
1508831035.4,286047001.8,N
1508831055.2,286047002.2,N
1508831075.1,286046999.0,N
1508831076.0,286046999.0,N
1508831095.8,286046997.1,N
1508831115.6,286046999.2,N
1508831135.5,286047000.8,N
1508831155.3,286046999.7,N
1508831175.2,286047005.9,N
1508831195.9,286047003.6,N
1508831215.7,286047003.5,N
1508831235.6,286047003.9,N
1508831255.4,286047003.8,N
1508831275.2,286047002.4,N
1508831295.1,286047001.0,N
1508831296.0,286047001.0,N
1508831315.8,286047002.1,N
1508831335.6,286047002.0,N
1508831355.5,286047003.4,N
1508831375.3,286047001.9,N
1508831395.1,286047004.1,N
1508831415.9,286047001.7,N
1508831435.7,286046999.7,N
1508831455.5,286047000.0,N
1508831475.4,286046999.8,N
1508831495.2,286047000.3,N
1508831515.0,286047001.9,N
1508831515.9,286047001.9,N
1508831535.8,286047003.4,N
1508831555.6,286047002.8,N
1508831575.4,286047002.1,N
1508831595.3,286047005.1,N
1508831615.1,286047004.8,N
1508831635.8,286047004.6,N
1508831655.7,286047003.4,N
1508831675.5,286047001.8,N
1508831695.4,286046998.9,N
1508831715.2,286046999.4,N
1508831735.0,286046997.1,N
1508831735.9,286046997.1,N
1508831755.8,286046999.0,N
1508831775.6,286047002.8,N
1508831795.4,286047002.6,N
1508831815.3,286047000.6,N
1508831835.1,286046998.7,N
1508831836.0,286046998.7,N
1508831855.8,286046997.2,N
1508831875.7,286046996.5,N
1508831895.5,286046995.7,N
1508831915.3,286046993.5,N
1508831935.2,286046993.9,N
1508831955.9,286046994.0,N
1508831975.7,286046993.6,N
1508831995.6,286046997.6,N
